FW2977 Weather Reports


Display with metric or nautical units.
time (UTC)temp
F
wind
direction
speed
MPH
gust
MPH
rain 1hr
in
rain 24hr
in
rain mn
in
humidity
%
barometer
mb
20260901160005 69 94 3.0 6.0 0.00 1.22 0.77 98 962.3
20260901154504 69 117 2.0 6.0 0.01 1.22 0.77 98 962.4
20260901153002 69 124 1.0 3.0 0.02 1.22 0.77 98 962.4
20260901151558 68 132 1.0 4.0 0.02 1.22 0.77 98 962.6
20260901150054 68 119 2.0 6.0 0.08 1.22 0.77 98 962.5
20260901144551 68 130 3.0 4.0 0.08 1.21 0.76 98 962.5
20260901143051 68 161 2.0 5.0 0.23 1.20 0.75 98 962.4
20260901141557 67 137 2.0 7.0 0.31 1.20 0.75 98 962.5
20260901140052 67 168 2.0 5.0 0.26 1.13 0.69 98 962.4
20260901134547 67 120 1.0 6.0 0.27 1.12 0.68 98 962.1
20260901133047 67 134 1.0 6.0 0.16 0.96 0.51 98 962.8
20260901131545 68 159 2.0 7.0 0.20 0.88 0.43 98 963.0
20260901130044 68 159 1.0 5.0 0.34 0.88 0.43 98 962.6
20260901124550 67 192 1.0 2.0 0.35 0.86 0.41 98 962.9
20260901123040 67 250 2.0 4.0 0.31 0.80 0.35 98 963.5
20260901121546 67 182 1.0 3.0 0.19 0.67 0.22 97 963.3
20260901120038 67 132 0.0 3.0 0.07 0.54 0.09 98 963.0
20260901114538 67 103 0.0 0.0 0.04 0.51 0.06 98 962.9
20260901113041 67 103 1.0 2.0 0.02 0.49 0.04 98 962.9
20260901111542 67 109 1.0 4.0 0.01 0.48 0.03 98 962.5
20260901110039 67 134 2.0 6.0 0.00 0.47 0.02 98 962.5
20260901104534 67 82 2.0 4.0 0.00 0.47 0.02 98 962.4
20260901103033 66 119 3.0 7.0 0.00 0.47 0.02 98 962.2
20260901101530 66 102 2.0 3.0 0.00 0.47 0.02 98 962.3
20260901100029 66 103 2.0 4.0 0.00 0.47 0.02 98 962.2
20260901094529 66 103 2.0 7.0 0.00 0.47 0.02 98 962.5
20260901093027 66 119 2.0 3.0 0.01 0.47 0.02 98 962.7
20260901091535 67 119 2.0 3.0 0.01 0.47 0.02 98 962.6
20260901090026 66 134 2.0 4.0 0.01 0.47 0.02 98 962.8
20260901084522 66 114 2.0 4.0 0.02 0.47 0.02 98 963.1
20260901083021 66 127 2.0 4.0 0.01 0.46 0.01 98 963.2
20260901081520 66 111 2.0 4.0 0.01 0.46 0.01 97 963.2
20260901080021 66 119 0.0 3.0 0.01 0.46 0.01 97 963.4
20260901074518 66 111 3.0 7.0 0.00 0.45 0.00 97 963.2
20260901073023 66 93 2.0 4.0 0.00 0.45 0.00 97 963.3
20260901071517 66 123 0.0 2.0 0.00 0.45 0.00 97 963.6
20260901070025 66 123 1.0 3.0 0.00 0.45 0.00 97 963.3
20260901064515 66 123 1.0 3.0 0.00 0.45 0.00 97 963.4
20260901063013 66 123 2.0 4.0 0.00 0.45 0.00 97 963.6
20260901061512 66 124 2.0 3.0 0.00 0.45 0.00 97 963.6
20260901060010 66 124 1.0 3.0 0.00 0.45 0.00 98 963.7
20260901054508 66 124 1.0 3.0 0.00 0.45 0.00 97 964.0
20260901053011 66 124 1.0 2.0 0.00 0.45 0.00 97 964.1
20260901051506 66 124 0.0 2.0 0.00 0.45 0.00 97 964.2
20260901050006 66 124 1.0 2.0 0.00 0.45 0.00 97 964.2
20260901044506 66 124 1.0 3.0 0.00 0.45 0.00 97 964.2
20260901043006 66 124 1.0 3.0 0.00 0.45 0.00 97 964.3
20260901041503 66 140 1.0 3.0 0.00 0.45 0.00 97 964.3
20260901040104 66 155 1.0 3.0 0.00 0.45 0.00 97 964.1
20260901034605 66 162 1.0 2.0 0.00 0.45 0.45 97 964.2
20260901033106 66 162 0.0 1.0 0.00 0.45 0.45 97 964.2
20260901031557 66 162 0.0 1.0 0.00 0.45 0.45 97 964.4
20260901030055 66 162 0.0 1.0 0.00 0.45 0.45 97 964.3
20260901024600 65 162 0.0 2.0 0.00 0.45 0.45 97 964.4
20260901023054 65 162 0.0 0.0 0.00 0.45 0.45 97 964.5
20260901021558 65 162 0.0 3.0 0.07 0.45 0.45 97 964.6
20260901020055 65 134 2.0 4.0 0.10 0.45 0.45 97 964.5
20260901014552 65 123 2.0 6.0 0.11 0.45 0.45 97 964.7
20260901013052 65 121 4.0 7.0 0.12 0.45 0.45 97 964.7
20260901011558 65 131 1.0 2.0 0.06 0.38 0.38 97 964.9
20260901010051 65 131 1.0 6.0 0.03 0.35 0.35 97 964.6
20260901004552 65 98 3.0 6.0 0.02 0.34 0.34 97 964.6
20260901003056 65 106 2.0 6.0 0.01 0.33 0.33 97 964.4
20260901001553 65 121 1.0 7.0 0.00 0.32 0.32 97 964.3
20260901000048 65 117 3.0 7.0 0.00 0.32 0.32 97 964.3
20260831234547 65 113 4.0 7.0 0.00 0.32 0.32 97 964.5
20260831233048 65 109 4.0 7.0 0.00 0.32 0.32 97 964.5
20260831231545 65 113 2.0 6.0 0.01 0.32 0.32 97 964.7
20260831230044 65 115 3.0 6.0 0.01 0.32 0.32 97 964.8
20260831224542 65 94 2.0 4.0 0.01 0.32 0.32 97 964.9
20260831223043 65 96 0.0 4.0 0.01 0.32 0.32 97 965.4
20260831221543 65 142 0.0 3.0 0.00 0.31 0.31 96 965.4
20260831220039 65 136 2.0 6.0 0.02 0.31 0.31 96 965.5
20260831214544 65 69 0.0 7.0 0.04 0.31 0.31 96 965.4
20260831213043 65 120 0.0 6.0 0.04 0.31 0.31 96 965.5
20260831211538 65 121 1.0 4.0 0.04 0.31 0.31 96 965.5
20260831210038 65 97 3.0 6.0 0.03 0.28 0.28 96 965.4
20260831204551 65 80 4.0 5.0 0.04 0.27 0.27 96 965.4
20260831203054 65 104 3.0 5.0 0.05 0.27 0.27 96 965.5
20260831201533 65 86 1.0 6.0 0.05 0.27 0.27 96 965.5
20260831200038 65 110 2.0 6.0 0.04 0.26 0.26 96 965.7
20260831194530 65 99 4.0 8.0 0.01 0.23 0.23 96 965.8
20260831193028 64 97 4.0 8.0 0.00 0.22 0.22 96 965.8
20260831191527 64 84 4.0 8.0 0.00 0.22 0.22 96 966.0
20260831190030 64 96 5.0 10.0 0.00 0.22 0.22 95 966.3
20260831184529 64 82 4.0 10.0 0.01 0.22 0.22 96 966.3
20260831183027 64 99 3.0 8.0 0.03 0.22 0.22 95 966.5
20260831181526 63 114 4.0 7.0 0.06 0.22 0.22 95 966.7
20260831180021 63 91 5.0 9.0 0.07 0.22 0.22 95 966.8
20260831174522 63 119 4.0 8.0 0.08 0.21 0.21 94 966.9
20260831173019 63 101 3.0 8.0 0.10 0.19 0.19 94 967.2
20260831171519 63 93 4.0 8.0 0.15 0.16 0.16 94 967.3
20260831170026 64 115 4.0 9.0 0.15 0.15 0.15 93 967.4
20260831164517 64 74 3.0 7.0 0.12 0.12 0.12 93 967.5
20260831163017 65 85 2.0 4.0 0.08 0.08 0.08 92 967.6
20260831161515 65 90 1.0 3.0 0.00 0.00 0.00 89 967.9